Lid_Strength_Index
3 2 2 2 1 1 1 1 1 1 2 2 2 2 2 1 1 2 4 2 5 11 11 9 8 11 11 12 15 15 11 11 14 13 14 17 20 17 20 17 16 15 16 18 15 16 19 12 13 13 12 11 10 10
3 3 2 2 2 1 1 1 1 1 1 2 2 2 2 2 2 2 5 3 3 8 9 7 6 6 7 8 11 13 13 15 12 14 17 17 19 20 19 21 14 18 15 17 15 15 10 11 11 9 9 10 10 10
3 3 3 2 2 1 2 1 1 1 1 1 2 2 2 2 2 2 5 3 4 8 9 9 9 8 6 6 6 11 13 10 11 11 15 17 18 15 21 20 18 15 13 15 15 14 13 12 11 9 10 8 9 10
2 2 2 2 2 2 2 1 1 1 1 1 2 2 2 2 2 2 5 4 4 8 10 10 8 8 6 6 6 7 8 8 9 12 16 19 19 14 17 15 15 14 13 16 16 13 12 11 10 9 9 10 10 10
2 2 2 2 2 2 1 1 1 1 1 2 2 2 2 2 2 3 5 4 3 7 11 12 12 9 7 7 7 7 7 10 12 12 14 18 18 17 20 16 18 14 14 15 17 12 11 11 10 10 11 11 11 11
1 1 1 1 1 1 1 1 1 1 1 1 2 2 2 2 2 5 9 6 4 4 9 15 10 13 10 7 7 8 8 11 12 13 16 16 13 13 20 23 14 13 12 11 12 11 10 10 11 13 12 12 12 12
-1 -1 -1 -1 -1 -0 -0 0 1 1 1 1 1 1 1 1 3 7 9 9 3 3 9 13 14 12 8 8 9 9 8 11 12 15 15 13 12 11 19 21 14 13 11 11 11 11 13 12 12 13 13 14 14 15
-1 -1 -1 -1 -1 -1 -1 -1 -0 0 1 1 1 1 0 0 1 5 4 3 2 6 7 12 13 12 8 9 9 7 9 9 11 14 15 14 13 16 21 15 11 12 12 11 13 14 13 15 14 15 16 16 18 17
-1 -1 -1 -1 -1 -1 -1 -1 -1 -1 -1 -0 0 -1 0 2 6 8 2 1 2 6 10 12 14 15 7 9 9 9 8 12 10 13 12 12 17 17 14 12 12 13 13 13 17 18 18 17 17 18 19 19 20 19
-1 1 -0 -0 -0 -1 -1 -1 -1 -1 -1 -1 1 4 7 5 0 0 4 7 6 6 7 11 12 13 8 10 11 13 10 13 15 13 11 13 18 11 13 17 16 17 18 19 19 19 23 23 20 20 20 20 20 21
-0 -1 -0 0 -0 -0 -1 -1 -1 -1 -0 2 6 7 6 -1 4 5 8 9 10 10 9 9 10 14 9 14 14 11 13 13 16 15 17 19 22 12 19 20 19 19 20 21 21 21 21 22 22 22 22 23 24 25
-1 -0 -0 0 -0 -0 -1 -1 -0 1 4 3 4 4 4 6 7 10 11 11 16 14 10 11 11 8 9 8 11 12 13 13 18 16 19 20 17 20 20 22 23 23 24 26 26 25 24 23 23 24 25 26 27 28
0 0 1 1 1 -0 -1 -1 -1 -0 -0 2 5 8 8 8 12 14 19 20 16 15 11 12 10 9 9 9 11 12 15 16 15 16 20 19 21 25 27 26 28 29 29 30 31 31 29 28 29 30 30 31 30 30
1 0 2 2 2 0 -0 -1 -1 0 4 9 9 12 12 14 20 14 18 12 13 9 10 8 11 10 10 12 12 16 15 15 18 20 22 21 24 26 29 29 30 30 30 29 31 30 29 30 31 33 34 34 33 32
2 2 3 3 3 1 -0 -1 -0 13 12 12 11 14 20 23 27 27 22 19 18 13 7 9 13 10 12 13 13 16 18 19 18 19 18 26 28 29 30 32 32 32 32 32 33 33 31 31 32 33 34 34 33 32
3 6 6 3 4 2 -0 4 12 14 19 20 24 24 25 24 26 28 25 23 18 13 7 9 12 13 15 14 17 18 20 21 19 21 30 29 30 32 32 33 33 34 34 35 35 34 32 33 33 33 35 34 33 32
6 10 4 4 5 7 8 15 16 21 22 27 32 31 32 32 26 24 24 22 20 20 11 12 15 15 13 17 22 23 20 22 33 34 34 32 31 33 34 34 35 36 36 37 37 36 34 35 36 35 34 33 34 32
15 10 5 6 10 12 16 17 21 25 29 26 27 27 25 28 31 26 25 23 23 17 14 14 14 16 18 19 20 27 32 34 32 31 31 33 36 37 35 34 38 37 37 38 38 38 38 34 35 34 35 34 32 30
9 7 6 8 11 16 19 21 20 26 27 27 25 25 25 26 25 25 25 24 22 21 18 18 18 23 27 31 32 33 30 30 30 30 32 35 33 36 37 37 36 37 37 39 39 38 39 38 35 34 33 32 32 31
7 7 8 10 13 19 22 23 19 23 26 25 25 26 26 26 26 26 26 27 24 23 29 28 31 34 32 33 33 30 31 29 29 33 35 34 36 39 37 36 35 37 37 39 38 36 37 35 34 34 33 33 33 33
13 12 12 17 21 22 24 24 24 24 24 26 27 26 26 26 28 29 29 28 29 34 33 34 35 35 36 36 36 34 33 30 33 32 33 36 36 36 38 38 37 39 38 39 36 36 36 36 34 32 33 32 31 31
18 12 21 18 22 24 25 26 25 25 26 29 27 29 32 31 32 31 30 32 35 36 36 35 37 37 35 36 38 39 39 41 40 35 32 31 34 35 36 38 35 39 40 39 38 36 36 34 32 31 30 30 28 28
16 17 22 24 24 26 30 26 28 29 29 30 32 30 33 34 33 29 35 36 36 35 38 39 40 41 40 41 41 41 42 39 39 40 41 41 42 43 38 41 39 36 38 37 36 35 34 29 29 29 29 28 29 29
21 29 30 31 30 35 33 33 31 32 31 32 33 35 37 38 33 33 38 42 38 38 40 43 44 40 39 39 41 43 42 44 43 42 44 38 38 39 41 40 40 39 36 35 33 33 33 32 29 30 30 30 30 31
24 36 34 37 35 34 36 37 36 33 37 35 33 34 36 40 35 37 38 42 43 43 43 45 43 42 41 44 43 43 42 42 39 39 40 42 42 39 37 38 37 36 35 34 35 35 34 32 31 31 30 30 31 31
38 42 40 47 40 38 41 39 41 40 41 35 36 36 36 33 29 32 38 41 43 43 42 41 41 41 40 42 41 40 39 43 41 38 38 38 36 36 39 37 36 34 35 36 34 33 32 30 31 31 31 31 31 33
39 42 40 42 42 42 41 43 43 40 42 40 42 36 34 29 30 35 40 39 39 42 42 42 42 40 39 40 41 43 44 42 37 36 38 38 36 35 33 32 31 29 30 31 31 31 31 31 31 32 33 33 34 35
41 42 40 42 43 46 45 46 45 44 43 42 43 39 35 34 33 37 36 36 41 43 42 44 43 41 41 40 41 40 38 38 36 34 33 31 30 29 29 29 28 26 29 29 30 31 32 32 32 33 34 34 34 35
41 43 42 42 43 41 44 43 44 44 41 46 41 40 40 39 42 43 39 39 45 42 41 41 39 43 40 39 38 37 37 35 33 32 30 29 29 28 29 29 29 29 30 30 28 28 32 32 32 32 32 33 33 36
42 47 42 45 41 40 41 43 45 47 48 43 44 40 40 40 40 44 44 44 41 40 42 43 43 41 40 39 38 38 39 36 33 31 31 30 28 28 29 29 29 29 29 30 30 30 28 29 31 34 33 34 35 36
47 48 43 45 42 45 47 50 51 50 50 50 52 46 44 44 40 44 39 42 43 47 43 42 43 43 38 39 41 40 36 36 32 31 30 29 28 28 28 28 28 29 29 30 31 32 32 33 34 35 35 36 36 37
46 46 42 39 40 45 49 50 51 48 50 48 46 52 45 44 41 37 38 40 43 43 37 40 40 34 35 35 38 37 33 38 38 33 32 29 28 28 28 28 28 30 31 31 32 32 33 34 35 35 35 37 37 37
49 50 50 46 41 41 46 46 45 44 46 47 46 49 49 44 38 35 36 36 35 34 34 34 34 38 37 35 34 34 33 34 34 26 24 24 25 26 29 30 30 31 32 32 33 33 34 35 36 36 37 37 36 35